Weather History for KCOD - December, 2013

Change the Weather History Date:

Thursday, December 5, 2013

  Actual Average Record
Temperature  
Mean Temperature -6 °F -  
Max Temperature 0 °F 38 °F 64 °F (1939)
Min Temperature -13 °F 16 °F -29 °F (1972)
Degree Days  
Heating Degree Days 72    
Moisture  
Dew Point -10 °F    
Average Humidity 85    
Maximum Humidity 100    
Minimum Humidity 77    
Precipitation  
Precipitation 0.00 in - - ()
Sea Level Pressure  
Sea Level Pressure 30.01 in    
Wind  
Wind Speed 2 mph (SSE)    
Max Wind Speed 8 mph    
Max Gust Speed -    
Visibility 10 miles    
Events      
Averages and records for this station are not official NWS values.
T = Trace of Precipitation, MM = Missing Value Source: NWS Daily Summary

Daily Weather History Graph

Daily Weather History Graph

Search for Another Location

Airport or City:

Trip Planner

Search our weather history database for the weather conditions in past years. The results will help you decide how hot, cold, wet, or windy it might be!

Date:

Astronomy

Dec. 05, 2013 Rise Set
Actual Time 7:37 AM MST 4:36 PM MST
Civil Twilight 7:04 AM MST 5:09 PM MST
Nautical Twilight 6:27 AM MST 5:46 PM MST
Astronomical Twilight 5:52 AM MST 6:21 PM MST
Moon 9:56 AM MST (12/5) 8:05 PM MST (12/5)
Length of Visible Light 10h 05m
Length of Day
8h 59m
Waxing Crescent, 11% of the Moon is Illuminated
Dec 5
Waxing Crescent
Dec 9
First Quarter
Dec 17
Full
Dec 25
Last Quarter
Jan 1
New

Hourly Weather History & Observations

Time (MST) Temp. Windchill Dew Point Humidity Pressure Visibility Wind Dir Wind Speed Gust Speed Precip Events Conditions
12:15 AM -9.4 °F - -13.0 °F 84% 30.01 in 10.0 mi Calm Calm - N/A   Clear
12:35 AM -11.2 °F - -16.6 °F 77% 30.01 in 10.0 mi Calm Calm - N/A   Clear
12:55 AM -11.2 °F - -13.0 °F 92% 30.01 in 10.0 mi Calm Calm - N/A   Clear
1:15 AM -9.4 °F - -11.2 °F 92% 30.00 in 10.0 mi Calm Calm - N/A   Clear
1:35 AM -9.4 °F - -13.0 °F 84% 30.00 in 10.0 mi Calm Calm - N/A   Clear
1:55 AM -11.2 °F - -14.8 °F 84% 30.00 in 10.0 mi Calm Calm - N/A   Clear
2:15 AM -9.4 °F - -11.2 °F 92% 30.00 in 10.0 mi Calm Calm - N/A   Clear
5:15 AM -13.0 °F -22.7 °F -16.6 °F 84% 29.99 in 10.0 mi South 3.5 mph - N/A   Clear
6:35 AM -11.2 °F -24.8 °F - N/A% 29.99 in 10.0 mi South 5.8 mph - N/A   Clear
6:55 AM -9.4 °F -20.9 °F -14.8 °F 77% 29.99 in 10.0 mi South 4.6 mph - N/A   Clear
9:35 AM -7.6 °F -16.5 °F -9.4 °F 92% 30.00 in 10.0 mi SSW 3.5 mph - N/A   Clear
10:55 AM -4.0 °F - -5.8 °F 92% 30.01 in 9.0 mi Calm Calm - N/A   Clear
11:15 AM -2.2 °F - -5.8 °F 85% 30.00 in 10.0 mi Calm Calm - N/A   Clear
11:35 AM -2.2 °F -10.4 °F -5.8 °F 85% 29.99 in 10.0 mi NE 3.5 mph - N/A   Clear
11:55 AM -2.2 °F - -2.2 °F 100% 29.98 in 10.0 mi Calm Calm - N/A   Clear
12:15 PM -0.4 °F - -5.8 °F 78% 29.98 in 10.0 mi Calm Calm - N/A   Clear
12:35 PM -0.4 °F -10.4 °F -4.0 °F 85% 29.97 in 10.0 mi ENE 4.6 mph - N/A   Clear
12:55 PM -0.4 °F - -5.8 °F 78% 29.97 in 10.0 mi Calm Calm - N/A   Clear
1:15 PM -0.4 °F - -5.8 °F 78% 29.97 in 10.0 mi Calm Calm - N/A   Clear
1:55 PM -2.2 °F -14.2 °F -5.8 °F 85% 29.97 in 10.0 mi NE 5.8 mph - N/A   Clear
2:15 PM -2.2 °F -14.2 °F -7.6 °F 78% 29.97 in 10.0 mi NE 5.8 mph - N/A   Clear
2:35 PM -2.2 °F -10.4 °F -5.8 °F 85% 29.98 in 10.0 mi NE 3.5 mph - N/A   Clear
2:55 PM -2.2 °F - -5.8 °F 85% 29.98 in 10.0 mi Calm Calm - N/A   Clear
3:15 PM -2.2 °F -10.4 °F -7.6 °F 78% 29.99 in 10.0 mi NE 3.5 mph - N/A   Clear
3:35 PM -2.2 °F - -5.8 °F 85% 29.99 in 10.0 mi Calm Calm - N/A   Clear
3:55 PM -2.2 °F - -5.8 °F 85% 30.00 in 10.0 mi Calm Calm - N/A   Clear
4:15 PM -2.2 °F - -5.8 °F 85% 30.00 in 10.0 mi Calm Calm - N/A   Clear
4:35 PM -2.2 °F - -7.6 °F 78% 30.00 in 10.0 mi Calm Calm - N/A   Partly Cloudy
4:55 PM -5.8 °F -14.5 °F -7.6 °F 92% 30.00 in 10.0 mi SSE 3.5 mph - N/A   Mostly Cloudy
5:15 PM -5.8 °F -18.4 °F -9.4 °F 84% 30.01 in 10.0 mi SSE 5.8 mph - N/A   Mostly Cloudy
5:35 PM -5.8 °F - -7.6 °F 92% 30.01 in 10.0 mi Calm Calm - N/A   Scattered Clouds
5:55 PM -5.8 °F -14.5 °F -9.4 °F 84% 30.02 in 9.0 mi South 3.5 mph - N/A   Partly Cloudy
6:15 PM -7.6 °F - -11.2 °F 84% 30.02 in 10.0 mi Calm Calm - N/A   Mostly Cloudy
6:35 PM -5.8 °F - -7.6 °F 92% 30.02 in 10.0 mi Calm Calm - N/A   Overcast
6:55 PM -5.8 °F -14.5 °F -7.6 °F 92% 30.03 in 10.0 mi SSE 3.5 mph - N/A   Mostly Cloudy
7:15 PM -5.8 °F -14.5 °F -9.4 °F 84% 30.03 in 10.0 mi SSE 3.5 mph - N/A   Mostly Cloudy
7:35 PM -5.8 °F -18.4 °F -9.4 °F 84% 30.03 in 10.0 mi SSE 5.8 mph - N/A   Mostly Cloudy
7:55 PM -5.8 °F -21.2 °F -9.4 °F 84% 30.04 in 10.0 mi South 8.1 mph - N/A   Partly Cloudy
8:15 PM -7.6 °F -20.6 °F -13.0 °F 77% 30.04 in 10.0 mi South 5.8 mph - N/A   Clear
8:35 PM -7.6 °F -20.6 °F -9.4 °F 92% 30.04 in 10.0 mi South 5.8 mph - N/A   Clear
8:55 PM -9.4 °F -20.9 °F -13.0 °F 84% 30.04 in 10.0 mi South 4.6 mph - N/A   Clear
9:15 PM -9.4 °F -22.7 °F -11.2 °F 92% 30.04 in 10.0 mi South 5.8 mph - N/A   Clear
9:35 PM -7.6 °F -18.8 °F -11.2 °F 84% 30.04 in 10.0 mi South 4.6 mph - N/A   Clear
9:55 PM -9.4 °F -18.6 °F -11.2 °F 92% 30.04 in 10.0 mi South 3.5 mph - N/A   Clear
10:15 PM -9.4 °F - -14.8 °F 77% 30.04 in 10.0 mi Calm Calm - N/A   Clear
10:35 PM -9.4 °F - -13.0 °F 84% 30.04 in 10.0 mi Calm Calm - N/A   Clear
10:55 PM -9.4 °F -20.9 °F -13.0 °F 84% 30.04 in 10.0 mi SSE 4.6 mph - N/A   Clear
11:15 PM -11.2 °F -23.0 °F -16.6 °F 77% 30.05 in 10.0 mi South 4.6 mph - N/A   Clear
11:35 PM -11.2 °F - -16.6 °F 77% 30.05 in 10.0 mi Calm Calm - N/A   Clear
11:55 PM -11.2 °F - -13.0 °F 92% 30.05 in 10.0 mi Calm Calm - N/A   Partly Cloudy